Regional Weather Roundup
Issued by NWS Midland/Odessa, TX

Skip options and go directly to product.
Home | Oldest Version | Previous Version | Current Version | All | Text Only | Save Text | Print | Product List | Glossary On

Skip product version selection by date and time.   
897
ASUS44 KMAF 220310
RWRMAF
MIDLAND AREA WEATHER ROUNDUP
NATIONAL WEATHER SERVICE MIDLAND TX
1000 PM CDT TUE OCT 21 2014

...IN SOUTHWEST TEXAS AND SOUTHEAST NEW MEXICO...

CITY           SKY/WX    TMP DP  RH WIND       PRES   REMARKS
ALPINE         CLEAR     59  55  88 SE6       30.16R
ANDREWS        CLOUDY    65  56  74 S3        30.09R
ARTESIA        NOT AVBL
BIG SPRING     PTCLDY    65  51  60 E6        30.09R
CARLSBAD       CLOUDY    65  61  87 SE7       30.06R
DRYDEN           N/A     66  64  93 CALM      30.04R
FORT STOCKTON  CLOUDY    63  61  93 SE8       30.07R
GUAD PASS      FOG       56  55  97 NE22      30.14R VSB 1/2
HOBBS          CLOUDY    61  59  94 SE5       30.11R
MARFA          PTCLDY    55  54  94 CALM      30.13S
MIDLAND AIRPK  MOCLDY    71  56  58 S5        30.08R
MIDLAND INTL   CLOUDY    70  58  65 S8        30.07R
ODESSA         CLOUDY    66  60  81 S8        30.08R
PECOS          CLOUDY    64  61  90 E9        30.04S
PRESIDIO       FAIR      65  60  83 MISG      30.02R
SEMINOLE       MOCLDY    62  60  93 CALM      30.10R
SNYDER         PTCLDY    63  51  64 E6        30.07S
WINK           LGT RAIN  65  63  93 SE5       30.06R
$$
...OTHER STATIONS IN TEXAS...

CITY           SKY/WX    TMP DP  RH WIND       PRES   REMARKS
ABILENE        PTCLDY    67  50  54 SE7       30.07R
AMARILLO       CLEAR     60  48  64 SE10      30.08R
AUSTIN         MOCLDY    60  54  80 CALM      30.05R
BROWNSVILLE    CLOUDY    78  72  81 NE8       29.95R
CORPUS CHRISTI MOCLDY    75  66  73 E12       29.99R
DALLAS FTW     CLEAR     69  58  67 SE7       30.06R
DEL RIO        CLOUDY    70  67  90 N7        29.99S
EL PASO        PTCLDY    63  54  72 E6        30.03R
HOUSTON INT    PTCLDY    67  61  81 CALM      30.04R
LUBBOCK        CLOUDY    66  52  60 S7        30.08R
SAN ANGELO     CLOUDY    71  53  52 E5        30.05R
SAN ANTONIO    MOCLDY    71  48  43 NE5       30.03R
WACO           PTCLDY    66  58  75 E5        30.05S
WICHITA FALLS  NOT AVBL
$$
...OTHER LOCATIONS IN NEW MEXICO...

CITY           SKY/WX    TMP DP  RH WIND       PRES   REMARKS
ALAMAGORDO     NOT AVBL
ALBUQUERQUE    PTCLDY    57  47  69 SE7       30.10R
CANNON AFB     MOCLDY    57  56  95 S5        30.11R
CLOVIS         MOCLDY    57  54  88 SW7       30.13S
HOLLOMAN AFB   PTCLDY    60  53  76 S8        30.04R
ROSWELL        CLOUDY    61  59  93 S9        30.08R
RUIDOSO        MOCLDY    50  50 100 SE7       30.19S
SANTA FE       MOCLDY    53  44  71 SE6       30.13R
TRUTH OR CONSE CLEAR     62  51  67 NW3       30.06R
TUCUMCARI      CLOUDY    61  55  81 S9        30.07S
$$

USA.gov is the U.S. government's official web portal to all federal, state and local government web resources and services.